Time,TemperatureF,DewpointF,PressureIn,WindDirection,WindDirectionDegrees,WindSpeedMPH,WindSpeedGustMPH,Humidity,HourlyPrecipIn,Conditions,Clouds,dailyrainin,SoftwareType,DateUTC
2013-01-07 00:02:00,45.0,44.0,30.17,NE,44,0.0,2.0,96,0.01,,,0.08,,2013-01-07 08:02:00,
2013-01-07 00:11:00,45.0,44.0,30.17,NE,44,0.0,2.0,96,0.01,,,0.08,,2013-01-07 08:11:00,
2013-01-07 00:22:00,45.0,44.0,30.18,NE,38,0.0,1.0,96,0.01,,,0.08,,2013-01-07 08:22:00,
2013-01-07 00:32:00,45.0,44.0,30.18,NE,38,0.0,0.0,96,0.00,,,0.08,,2013-01-07 08:32:00,
2013-01-07 00:42:00,45.0,44.0,30.18,NE,38,0.0,0.0,96,0.00,,,0.08,,2013-01-07 08:42:00,
2013-01-07 00:52:00,45.0,44.0,30.18,NE,38,0.0,2.0,96,0.00,,,0.08,,2013-01-07 08:52:00,
2013-01-07 01:02:00,45.0,44.0,30.19,NE,38,0.0,0.0,96,0.00,,,0.08,,2013-01-07 09:02:00,
2013-01-07 01:12:00,45.0,44.0,30.19,NE,38,0.0,0.0,96,0.00,,,0.08,,2013-01-07 09:12:00,
2013-01-07 01:22:00,45.0,44.0,30.18,NNE,27,1.0,4.0,96,0.00,,,0.08,,2013-01-07 09:22:00,
2013-01-07 01:32:00,46.0,45.0,30.16,North,359,1.0,4.0,97,0.00,,,0.08,,2013-01-07 09:32:00,
2013-01-07 01:42:00,46.0,45.0,30.16,North,359,1.0,4.0,97,0.00,,,0.08,,2013-01-07 09:42:00,
2013-01-07 01:52:00,46.0,45.0,30.17,NNE,22,1.0,4.0,96,0.00,,,0.08,,2013-01-07 09:52:00,
2013-01-07 02:02:00,47.0,46.0,30.18,NNE,32,2.0,6.0,96,0.00,,,0.08,,2013-01-07 10:02:00,
2013-01-07 02:11:00,47.0,46.0,30.18,NNW,334,0.0,4.0,96,0.00,,,0.08,,2013-01-07 10:11:00,
2013-01-07 02:22:00,47.0,46.0,30.18,NNW,334,0.0,4.0,96,0.00,,,0.08,,2013-01-07 10:22:00,
2013-01-07 02:32:00,47.0,46.0,30.18,NE,37,0.0,6.0,96,0.00,,,0.08,,2013-01-07 10:32:00,
2013-01-07 02:42:00,47.0,46.0,30.18,NE,37,0.0,6.0,96,0.00,,,0.08,,2013-01-07 10:42:00,
2013-01-07 02:52:00,48.0,47.0,30.18,NW,305,2.0,6.0,96,0.00,,,0.08,,2013-01-07 10:52:00,
2013-01-07 03:02:00,48.0,47.0,30.19,WSW,255,1.0,6.0,95,0.00,,,0.08,,2013-01-07 11:02:00,
2013-01-07 03:12:00,48.0,47.0,30.19,WSW,255,1.0,6.0,95,0.00,,,0.08,,2013-01-07 11:12:00,
2013-01-07 03:22:00,48.0,47.0,30.19,WSW,255,1.0,6.0,95,0.00,,,0.08,,2013-01-07 11:22:00,
2013-01-07 03:32:00,48.0,47.0,30.19,WNW,291,1.0,7.0,95,0.00,,,0.07,,2013-01-07 11:32:00,
2013-01-07 03:42:00,48.0,47.0,30.19,WNW,291,1.0,7.0,95,0.00,,,0.07,,2013-01-07 11:42:00,
2013-01-07 03:53:00,49.0,48.0,30.18,NNW,341,3.0,8.0,95,0.00,,,0.06,,2013-01-07 11:53:00,
2013-01-07 04:02:00,49.0,48.0,30.17,WNW,290,1.0,6.0,95,0.01,,,0.07,,2013-01-07 12:02:00,
2013-01-07 04:12:00,49.0,48.0,30.17,North,350,1.0,10.0,95,0.01,,,0.07,,2013-01-07 12:12:00,
2013-01-07 04:22:00,49.0,48.0,30.17,North,350,1.0,10.0,95,0.01,,,0.07,,2013-01-07 12:22:00,
2013-01-07 04:32:00,49.0,47.0,30.17,NNW,345,4.0,14.0,94,0.01,,,0.07,,2013-01-07 12:32:00,
2013-01-07 04:42:00,49.0,47.0,30.17,NNW,345,4.0,14.0,94,0.01,,,0.07,,2013-01-07 12:42:00,
2013-01-07 04:52:00,49.0,47.0,30.16,NW,312,4.0,10.0,94,0.01,,,0.07,,2013-01-07 12:52:00,
2013-01-07 05:02:00,49.0,47.0,30.16,North,0,0.0,8.0,94,0.00,,,0.07,,2013-01-07 13:02:00,
2013-01-07 05:11:00,49.0,47.0,30.16,North,0,0.0,8.0,94,0.00,,,0.07,,2013-01-07 13:11:00,
2013-01-07 05:22:00,50.0,48.0,30.17,NNW,341,3.0,11.0,94,0.00,,,0.07,,2013-01-07 13:22:00,
2013-01-07 05:32:00,49.0,47.0,30.16,North,353,5.0,14.0,94,0.00,,,0.07,,2013-01-07 13:32:00,
2013-01-07 05:42:00,49.0,47.0,30.16,North,353,5.0,14.0,94,0.00,,,0.07,,2013-01-07 13:42:00,
2013-01-07 05:52:00,49.0,47.0,30.16,North,353,5.0,14.0,94,0.00,,,0.07,,2013-01-07 13:52:00,
2013-01-07 06:03:00,49.0,48.0,30.16,North,355,5.0,12.0,95,0.00,,,0.07,,2013-01-07 14:03:00,
2013-01-07 06:12:00,49.0,48.0,30.16,North,355,5.0,12.0,95,0.00,,,0.07,,2013-01-07 14:12:00,
2013-01-07 06:22:00,49.0,48.0,30.16,North,355,5.0,12.0,95,0.00,,,0.07,,2013-01-07 14:22:00,
2013-01-07 06:32:00,49.0,48.0,30.15,NNE,21,4.0,14.0,95,0.01,,,0.08,,2013-01-07 14:32:00,
2013-01-07 06:42:00,49.0,48.0,30.15,NNE,21,4.0,14.0,95,0.01,,,0.08,,2013-01-07 14:42:00,
2013-01-07 06:53:00,49.0,48.0,30.17,North,8,5.0,11.0,95,0.01,,,0.08,,2013-01-07 14:53:00,
2013-01-07 07:02:00,49.0,48.0,30.19,North,350,6.0,14.0,95,0.02,,,0.09,,2013-01-07 15:02:00,
2013-01-07 07:12:00,49.0,48.0,30.19,North,350,6.0,14.0,95,0.02,,,0.09,,2013-01-07 15:12:00,
2013-01-07 07:22:00,49.0,48.0,30.18,North,3,5.0,13.0,95,0.02,,,0.10,,2013-01-07 15:22:00,
2013-01-07 07:33:00,49.0,48.0,30.17,North,349,4.0,13.0,96,0.02,,,0.10,,2013-01-07 15:33:00,
2013-01-07 07:42:00,49.0,48.0,30.17,North,349,4.0,13.0,96,0.02,,,0.10,,2013-01-07 15:42:00,
2013-01-07 07:52:00,49.0,48.0,30.18,North,7,5.0,13.0,96,0.03,,,0.11,,2013-01-07 15:52:00,
2013-01-07 08:02:00,49.0,48.0,30.18,North,350,7.0,13.0,96,0.02,,,0.11,,2013-01-07 16:02:00,
2013-01-07 08:12:00,49.0,48.0,30.18,North,350,7.0,13.0,96,0.02,,,0.11,,2013-01-07 16:12:00,
2013-01-07 08:22:00,49.0,48.0,30.19,North,357,3.0,13.0,96,0.01,,,0.11,,2013-01-07 16:22:00,
2013-01-07 08:33:00,49.0,48.0,30.20,North,4,4.0,16.0,95,0.02,,,0.12,,2013-01-07 16:33:00,
2013-01-07 08:42:00,49.0,48.0,30.20,North,4,4.0,16.0,95,0.02,,,0.12,,2013-01-07 16:42:00,
2013-01-07 08:52:00,49.0,48.0,30.21,NNE,21,6.0,14.0,96,0.01,,,0.12,,2013-01-07 16:52:00,
2013-01-07 09:02:00,49.0,48.0,30.22,North,3,6.0,13.0,96,0.02,,,0.13,,2013-01-07 17:02:00,
2013-01-07 09:12:00,49.0,48.0,30.22,North,3,6.0,13.0,96,0.02,,,0.13,,2013-01-07 17:12:00,
2013-01-07 09:22:00,49.0,48.0,30.22,North,351,6.0,13.0,96,0.03,,,0.14,,2013-01-07 17:22:00,
2013-01-07 09:32:00,50.0,49.0,30.23,North,360,5.0,16.0,96,0.02,,,0.14,,2013-01-07 17:32:00,
2013-01-07 09:42:00,50.0,49.0,30.23,North,360,5.0,16.0,96,0.02,,,0.14,,2013-01-07 17:42:00,
2013-01-07 09:52:00,50.0,49.0,30.24,North,4,6.0,16.0,96,0.02,,,0.14,,2013-01-07 17:52:00,
2013-01-07 10:02:00,50.0,49.0,30.25,North,10,4.0,13.0,96,0.02,,,0.15,,2013-01-07 18:02:00,
2013-01-07 10:12:00,50.0,49.0,30.25,North,10,4.0,13.0,96,0.02,,,0.15,,2013-01-07 18:12:00,
2013-01-07 10:23:00,50.0,49.0,30.25,North,10,4.0,13.0,96,0.02,,,0.15,,2013-01-07 18:23:00,
2013-01-07 10:32:00,50.0,49.0,30.25,NNW,340,3.0,10.0,96,0.01,,,0.15,,2013-01-07 18:32:00,
2013-01-07 10:42:00,50.0,49.0,30.25,NNW,340,3.0,10.0,96,0.01,,,0.15,,2013-01-07 18:42:00,
2013-01-07 10:53:00,50.0,49.0,30.26,NNE,23,5.0,13.0,96,0.02,,,0.16,,2013-01-07 18:53:00,
2013-01-07 11:03:00,50.0,49.0,30.26,North,354,3.0,11.0,96,0.01,,,0.16,,2013-01-07 19:03:00,
2013-01-07 11:12:00,50.0,49.0,30.26,North,354,3.0,11.0,96,0.01,,,0.16,,2013-01-07 19:12:00,
2013-01-07 11:22:00,50.0,49.0,30.27,NNE,13,3.0,11.0,97,0.01,,,0.16,,2013-01-07 19:22:00,
2013-01-07 11:33:00,50.0,49.0,30.27,NNE,12,3.0,10.0,97,0.01,,,0.16,,2013-01-07 19:33:00,
2013-01-07 11:42:00,50.0,49.0,30.27,NNE,12,3.0,10.0,97,0.01,,,0.16,,2013-01-07 19:42:00,
2013-01-07 11:52:00,50.0,49.0,30.27,NNE,12,3.0,10.0,97,0.01,,,0.16,,2013-01-07 19:52:00,
2013-01-07 12:02:00,50.0,49.0,30.27,North,9,3.0,7.0,97,0.01,,,0.17,,2013-01-07 20:02:00,
2013-01-07 12:12:00,50.0,49.0,30.27,North,9,3.0,7.0,97,0.01,,,0.17,,2013-01-07 20:12:00,
2013-01-07 12:22:00,50.0,49.0,30.26,North,3,4.0,13.0,97,0.02,,,0.18,,2013-01-07 20:22:00,
2013-01-07 12:33:00,50.0,49.0,30.25,North,6,4.0,10.0,97,0.02,,,0.18,,2013-01-07 20:33:00,
2013-01-07 12:42:00,50.0,49.0,30.25,North,6,4.0,10.0,97,0.02,,,0.18,,2013-01-07 20:42:00,
2013-01-07 12:52:00,50.0,49.0,30.26,NNW,347,2.0,10.0,97,0.02,,,0.18,,2013-01-07 20:52:00,
2013-01-07 13:02:00,51.0,50.0,30.26,North,6,1.0,5.0,97,0.01,,,0.18,,2013-01-07 21:02:00,
2013-01-07 13:12:00,51.0,50.0,30.26,North,6,1.0,5.0,97,0.01,,,0.18,,2013-01-07 21:12:00,
2013-01-07 13:22:00,51.0,50.0,30.25,NNE,20,2.0,11.0,97,0.01,,,0.19,,2013-01-07 21:22:00,
2013-01-07 13:32:00,51.0,50.0,30.25,NNE,17,3.0,6.0,97,0.01,,,0.19,,2013-01-07 21:32:00,
2013-01-07 13:42:00,51.0,50.0,30.25,NNE,17,3.0,6.0,97,0.01,,,0.19,,2013-01-07 21:42:00,
2013-01-07 13:52:00,51.0,50.0,30.25,NNE,17,3.0,6.0,97,0.01,,,0.19,,2013-01-07 21:52:00,
2013-01-07 14:02:00,51.0,50.0,30.25,North,350,1.0,8.0,97,0.02,,,0.20,,2013-01-07 22:02:00,
2013-01-07 14:12:00,51.0,50.0,30.25,North,350,1.0,8.0,97,0.02,,,0.20,,2013-01-07 22:12:00,
2013-01-07 14:22:00,51.0,50.0,30.25,North,350,1.0,8.0,97,0.02,,,0.20,,2013-01-07 22:22:00,
2013-01-07 14:33:00,51.0,50.0,30.25,North,9,2.0,5.0,97,0.02,,,0.21,,2013-01-07 22:33:00,
2013-01-07 14:43:00,51.0,50.0,30.25,North,9,2.0,5.0,97,0.02,,,0.21,,2013-01-07 22:43:00,
2013-01-07 14:53:00,51.0,50.0,30.27,NNE,12,0.0,5.0,97,0.03,,,0.22,,2013-01-07 22:53:00,
2013-01-07 15:02:00,51.0,50.0,30.27,North,1,3.0,6.0,97,0.04,,,0.24,,2013-01-07 23:02:00,
2013-01-07 15:12:00,51.0,50.0,30.27,North,1,3.0,6.0,97,0.04,,,0.24,,2013-01-07 23:12:00,
2013-01-07 15:22:00,51.0,50.0,30.27,North,3,2.0,5.0,97,0.03,,,0.24,,2013-01-07 23:22:00,
2013-01-07 15:32:00,51.0,50.0,30.28,North,3,1.0,4.0,97,0.04,,,0.25,,2013-01-07 23:32:00,
2013-01-07 15:42:00,51.0,50.0,30.28,North,3,1.0,4.0,97,0.04,,,0.25,,2013-01-07 23:42:00,
2013-01-07 15:52:00,51.0,50.0,30.28,North,3,1.0,4.0,97,0.04,,,0.25,,2013-01-07 23:52:00,
2013-01-07 16:02:00,51.0,50.0,30.29,North,3,0.0,0.0,97,0.02,,,0.26,,2013-01-08 00:02:00,
2013-01-07 16:11:00,51.0,50.0,30.29,North,3,0.0,0.0,97,0.02,,,0.26,,2013-01-08 00:11:00,
2013-01-07 16:22:00,51.0,50.0,30.29,North,3,0.0,0.0,97,0.02,,,0.26,,2013-01-08 00:22:00,
2013-01-07 16:32:00,51.0,50.0,30.28,North,3,0.0,0.0,97,0.01,,,0.26,,2013-01-08 00:32:00,
2013-01-07 16:42:00,51.0,50.0,30.28,North,3,0.0,0.0,97,0.01,,,0.26,,2013-01-08 00:42:00,
2013-01-07 16:52:00,50.0,49.0,30.29,North,3,0.0,0.0,97,0.01,,,0.27,,2013-01-08 00:52:00,
2013-01-07 17:02:00,50.0,49.0,30.29,North,3,0.0,0.0,97,0.01,,,0.27,,2013-01-08 01:02:00,
2013-01-07 17:12:00,50.0,49.0,30.29,North,3,0.0,0.0,97,0.01,,,0.27,,2013-01-08 01:12:00,
2013-01-07 17:22:00,50.0,49.0,30.29,North,3,0.0,0.0,97,0.01,,,0.27,,2013-01-08 01:22:00,
2013-01-07 17:32:00,50.0,49.0,30.29,North,3,0.0,0.0,97,0.01,,,0.27,,2013-01-08 01:32:00,
2013-01-07 18:02:00,50.0,49.0,30.27,North,3,0.0,0.0,97,0.00,,,0.27,,2013-01-08 02:02:00,
2013-01-07 18:12:00,50.0,49.0,30.27,North,3,0.0,0.0,97,0.00,,,0.27,,2013-01-08 02:12:00,
2013-01-07 18:22:00,50.0,49.0,30.27,North,3,0.0,0.0,97,0.00,,,0.27,,2013-01-08 02:22:00,
2013-01-07 18:32:00,50.0,49.0,30.27,North,3,0.0,0.0,97,0.00,,,0.27,,2013-01-08 02:32:00,
2013-01-07 18:53:00,50.0,49.0,30.29,North,3,0.0,0.0,97,0.01,,,0.27,,2013-01-08 02:53:00,
2013-01-07 19:03:00,50.0,49.0,30.29,North,3,0.0,0.0,97,0.01,,,0.27,,2013-01-08 03:03:00,
2013-01-07 19:12:00,50.0,49.0,30.29,North,3,0.0,0.0,97,0.01,,,0.27,,2013-01-08 03:12:00,
2013-01-07 19:22:00,50.0,49.0,30.29,North,3,0.0,0.0,97,0.01,,,0.27,,2013-01-08 03:22:00,
2013-01-07 19:32:00,50.0,49.0,30.28,North,3,0.0,0.0,97,0.01,,,0.27,,2013-01-08 03:32:00,
2013-01-07 19:43:00,50.0,49.0,30.28,North,3,0.0,0.0,97,0.01,,,0.27,,2013-01-08 03:43:00,
2013-01-07 19:53:00,50.0,49.0,30.28,North,3,0.0,0.0,97,0.01,,,0.27,,2013-01-08 03:53:00,
2013-01-07 20:02:00,50.0,49.0,30.28,North,3,0.0,0.0,97,0.01,,,0.27,,2013-01-08 04:02:00,
2013-01-07 21:03:00,49.0,48.0,30.27,WNW,288,0.0,1.0,97,0.00,,,0.27,,2013-01-08 05:03:00,
2013-01-07 21:12:00,49.0,48.0,30.27,WNW,288,0.0,1.0,97,0.00,,,0.27,,2013-01-08 05:12:00,
2013-01-07 21:22:00,49.0,48.0,30.27,WNW,288,0.0,0.0,97,0.00,,,0.27,,2013-01-08 05:22:00,
2013-01-07 21:33:00,49.0,48.0,30.27,WNW,288,0.0,1.0,97,0.00,,,0.27,,2013-01-08 05:33:00,
2013-01-07 21:42:00,49.0,48.0,30.27,WNW,288,0.0,1.0,97,0.00,,,0.27,,2013-01-08 05:42:00,
2013-01-07 21:52:00,49.0,48.0,30.27,WNW,288,0.0,1.0,97,0.00,,,0.27,,2013-01-08 05:52:00,
2013-01-07 22:02:00,49.0,48.0,30.27,WNW,288,0.0,1.0,97,0.00,,,0.27,,2013-01-08 06:02:00,
2013-01-07 22:11:00,49.0,48.0,30.27,WNW,288,0.0,1.0,97,0.00,,,0.27,,2013-01-08 06:11:00,
2013-01-07 22:33:00,50.0,49.0,30.27,NW,318,0.0,5.0,97,0.00,,,0.25,,2013-01-08 06:33:00,
2013-01-07 22:42:00,50.0,49.0,30.27,NW,318,0.0,5.0,97,0.00,,,0.25,,2013-01-08 06:42:00,
2013-01-07 22:52:00,50.0,49.0,30.27,NW,318,0.0,5.0,97,0.00,,,0.25,,2013-01-08 06:52:00,
2013-01-07 23:02:00,50.0,49.0,30.27,North,354,0.0,4.0,97,0.00,,,0.23,,2013-01-08 07:02:00,
2013-01-07 23:11:00,50.0,49.0,30.27,North,354,0.0,4.0,97,0.00,,,0.23,,2013-01-08 07:11:00,
2013-01-07 23:22:00,50.0,49.0,30.27,NNE,14,2.0,6.0,97,0.00,,,0.23,,2013-01-08 07:22:00,
2013-01-07 23:32:00,50.0,49.0,30.27,NNE,19,4.0,6.0,97,0.00,,,0.22,,2013-01-08 07:32:00,
2013-01-07 23:42:00,50.0,49.0,30.27,NNE,19,4.0,6.0,97,0.00,,,0.22,,2013-01-08 07:42:00,
2013-01-07 23:52:00,50.0,49.0,30.28,NNE,16,3.0,6.0,97,0.00,,,0.22,,2013-01-08 07:52:00,